FREGAT DEB, 46524

Orbit data source: Space-Track

FREGAT DEB, 46524 is space debris in LEO originally from a launch on Mon, 18 Jul 2011 UTC launched from the Tyuratam Missile And Space Complex (TTMTR). Debris objects in space refer to the collection of defunct objects orbiting the Earth. Examples of debris include non-operational satellites, rocket bodies, and fragments generated from explosions, collisions, or faulty payload assembly.

Loading next visibility...
Identifier
46524, 2011-037MC
Orbit
LEO
Country
Flag of CISCIS
Related business
Manufacturer
Lavochkin
Mission
Spacecraft
Bus & Motor
Unknown
Mass
Unknown
Launch date (UTC)
2011-07-18 (14 years ago)
Launch vehicle
Unknown
Launch site
Tyuratam Missile And Space Complex (TTMTR)
Object type
Payload
Rocket body
Debris
Shape & HBR
Unknown
Radar Cross Section
Small (<0.1 m²)

Expand to show TLE details & history
Last TLE update: 1 week ago

TLE from 1 week ago
0 FREGAT DEB
1 46524U 11037MC  25248.77952224 -.00000780  00000-0 -18441-2 0  9999
2 46524  51.6391 172.0032 1832047 255.8861  83.2482 10.60803545195074
Epoch: 2025-09-05T18:42Z
TLE epoch observation values (Epoch: 2025-09-05T18:42:30.721Z)
Latitude
-0.00003°
Longitude
-93.74763°
Altitude
2,475.871 km
Speed
6.671 km/s
True Right ascension
11h 28m 00s
True Declination
0° 00' 00"
Sunlit
Object was in daylight at epoch
Visualization orbit readout
Latitude
Unknown
Longitude
Unknown
Altitude
Unknown
Speed
Unknown
Apparent Right ascension
Unknown
Apparent Declination
Unknown
Sunlit
N/A
Visualization observer readout
Local Sidereal Time
17:08:51
Azimuth
Unknown
Elevation
Unknown
Doppler factor
Unknown
Orbital elements
Apogee altitude
3,974.694 km
Perigee altitude
768.677 km
Semi-major axis
8,749.823 km
Eccentricity
0.1832
Inclination
51.6391°
RAAN
172.0032°
Arg. of periapsis
255.8861°
True anomaly
104.19477°
Mean anomaly
83.2482°
Eccentric anomaly
93.72291°
Mean motion
2.65182 °/min
Orbital period
135.76 mins
BSTAR
-0.0018441
Loading maneuver chart data...
Computing Atmospheric mass density...
Loading historical data...
Loading historical data...
Loading historical data...
Loading historical data...
Loading historical data...
Loading historical data...
Loading historical data...

Documentation

Showing up to 5 results
|